sat.trackr.live / text

‹ back to catalog

STARLINK-32483

NORAD 61856 · 2024-202M

PAYLOAD ACTIVE UNKNOWN

§ Identity

Operator
Country
US
Launch date
2024-11-07
Launch site
AFETR
Launch vehicle
Mass (kg)
RCS (m²)

Purposes: comms

External: N2YO · Heavens-Above · Gunter

§ Orbital elements

Epoch: 2026-09-21T06:58:19.180128Z

Period
94.27 min
Inclination
42.9999°
Eccentricity
0.0000744
Mean motion
15.27578207 rev/d
Perigee alt
482.5 km
Apogee alt
483.6 km
Semi-major
6,861.2 km
B*
1.3051e-6
RAAN
213.2159°
Arg perigee
273.5558°
Mean anomaly
86.5209°
Rev number
10,525

§ Raw data

STARLINK-324831 61856U 24202M   26264.29049977 -.00000226  00000+0  13051-5 0  99982 61856  42.9999 213.2159 0000744 273.5558  86.5209 15.27578207105250

JSON: /api/v1/satellites/61856 · /tle

For live sub-satellite position, see the globe view (requires WebGL).

§ Visibility from observer

Set your observer location to see the next 7 days of passes ≥ 10°. The values pass through the URL so the page stays shareable.

No JS? Fill the form by hand. The geolocation button needs JavaScript.